New York City, NY - LGA

Start Spreading the News

The New York City, NY base is actually a co-domicile splitting coverage between New York's LaGuardia International Airport (LGA) and the John F. Kennedy International Airport (JFK) depending on fleet type and the type of flying. The LGA airport caters to domestic flights with a few Canadian destinations, while JFK is the long haul international hub with domestic connections.

LGA Based Pilots: 13   Miles to LGA: 71708
Flights from LGA: 123   Total Hours: 400.19
Routes using LGA: 760   From LGA: 206.27
Total Miles: 140807   Hours To LGA: 193.92
Miles from LGA: 69099   LGA Charts: Click Here
VATSIM METAR: KLGA 042251Z 03020KT 10SM OVC013 13/10 A2991 RMK AO2 RAB03E13B37E47 SLP128 P0000 T01330100 $
 
         
View More: Click Here
   

 

Earn Your Wings

Interested in joining our LGA hub? Hover for more!

Your journey starts here. Your journey starts now. A whole new experience is at your fingertips.

Like what you see and ready to join the team?

A rewarding and memorable virtual airline experience awaits!